Starlink 5757

operational
NORAD ID: 55580 Int'l Des: 2023-020 Owner: SPXS Country: US Constellation: starlink
LEOCIRCULAR

Über Starlink 5757

Beschreibung wird geladen...

Live-Position

3D-Globus wird geladen...

Nächste Überflüge

Höhenverlauf

Altitude vs Time

uPlot chart will show altitude changes over time

Zweizeiliger Elementsatz

1 55580U 23020M 25354.19975595 .00000681 00000-0 65512-4 0 9997
2 55580 43.0044 50.4316 0001222 273.4982 86.5721 15.02529246157267
Epoch: 20. Dez. 2025 • Age: 19 hours

Aktueller Status

Höhe 570.5 km
Geschwindigkeit 7.58 km/s
Subsatellitenpunkt -40.47°S, 103.43°W
Startdatum 12. Feb. 2023
Alter 2.8 years
Typ internet

Technische Details

Klassifizierung Payload
Masse 305.00 kg
Trockenmasse 290.00 kg
Gesamtmasse 305.00 kg
Länge 0.20 m
Durchmesser 2.80 m
Spannweite 9.00 m
Form Box + pan
Hersteller SPXS
Bus-Typ Starlink
Phasenstatus In Orbit
Besitzer/Staat SPXS/US

Große Konstellationen

Loading constellations...